Regional Weather Roundup
Issued by NWS

Home | Current Version | Previous Version | Text Only | Print | Product List | Glossary On
Versions: 1 2 3 4 5 6 7 8 9 10 11 12 13 14 15 16 17 18 19 20 21 22 23 24 25 26 27 28 29 30 31 32 33 34 35 36 37 38 39 40 41 42 43 44 45 46 47 48 49 50
000
ASUS44 KFWD 292301
RWRTX
NORTH TEXAS HOURLY WEATHER ROUNDUP
NATIONAL WEATHER SERVICE FORT WORTH TX
600 PM CDT MON MAY 29 2017

NOTE: "FAIR" INDICATES FEW OR NO CLOUDS BELOW 12,000 FEET WITH NO
SIGNIFICANT WEATHER AND/OR OBSTRUCTIONS TO VISIBILITY.

TXZ118-119-300000-
DALLAS/FORT WORTH METROPLEX

CITY           SKY/WX    TMP DP  RH WIND       PRES   REMARKS
DFW AIRPORT    MOSUNNY   87  52  29 SE6       29.98F
DALLAS LOVE    MOSUNNY   87  51  28 NE6       29.99F
FTW MEACHAM    SUNNY     88  50  27 N8        29.98F
DAL-EXECUTIVE  SUNNY     86  52  30 NE7       29.98F
FTW-ALLIANCE   MOSUNNY   87  52  29 E6        29.99F
FTW-NAS-JRB    SUNNY     89  48  24 NE10      29.99F
FTW-SPINKS     SUNNY     86  46  25 E6        30.01F
ARLINGTON      SUNNY     87  50  27 VRB5      29.99F
GRAND PRAIRIE  SUNNY     86  48  26 NE7       30.00F
ADDISON        SUNNY     84  52  32 SE3       30.00F
MESQUITE       SUNNY     84  52  32 NW3       29.99F
LANCASTER      SUNNY     85  56  37 NE9       30.00S
$$

TXZ091>094-102>105-117-120-121-131>134-300000-
NORTH CENTRAL TEXAS

CITY           SKY/WX    TMP DP  RH WIND       PRES   REMARKS
SHRMAN/DENISON NOT AVBL
GAINESVILLE    SUNNY     84  48  28 CALM      30.02F
BOWIE          SUNNY     85  45  23 CALM      30.01F
BRIDGEPORT     SUNNY     86  48  26 NE6       30.02S
DECATUR        SUNNY     86  49  28 E6        30.01F
DENTON         SUNNY     86  51  29 NE9       29.99F
MCKINNEY       SUNNY     85  53  33 E6        29.99F
BONHAM         SUNNY     82  54  36 E9        30.01S
GREENVILLE     SUNNY     88  52  29 E3        30.00F
ROCKWALL       SUNNY     85  58  39 N5        30.00F
TERRELL        SUNNY     85  57  38 VRB5      30.00F
WAXAHACHIE     SUNNY     85  54  33 N6        30.00S
CLEBURNE       SUNNY     86  50  28 E7G16     30.01F
GRANBURY       SUNNY     88  47  24 E8        30.00F
$$

TXZ083>090-098>101-113>116-127>130-139>142-154-155-300000-
WESTERN NORTH TEXAS

CITY           SKY/WX    TMP DP  RH WIND       PRES   REMARKS
WICHITA FALLS  SUNNY     86  45  23 SE8       29.99F
WF-KICKAPOO    SUNNY     87  47  25 NE12G17   30.02F
VERNON         SUNNY     88  33  14 S12       30.00F
ABILENE        SUNNY     82  48  30 E9G17     30.02F
BRECKENRIDGE   SUNNY     88  39  17 SE8       29.99F
CISCO          SUNNY     82  50  32 VRB7      30.02F
EASTLAND       SUNNY     85  47  26 E8        30.01F
RANGER         SUNNY     85  46  26 E6        30.02S
MINERAL WELLS  SUNNY     88  42  20 NE9       29.98F
STEPHENVILLE   SUNNY     85  44  23 NE5       30.04S
COMANCHE       SUNNY     83  54  36 NE7       30.02F
BROWNWOOD      SUNNY     82  54  36 NE10      30.01F
COLEMAN        SUNNY     85  49  28 NE9       30.01F
$$

TXZ143>147-156>162-174-175-300000-
CENTRAL TEXAS

CITY           SKY/WX    TMP DP  RH WIND       PRES   REMARKS
WACO           SUNNY     85  66  53 E7        29.98F
WACO-TSTC      MOSUNNY   84  64  51 VRB5      29.98F
WACO-MCGREGOR  SUNNY     84  67  56 NE9       29.99S
HILLSBORO      MOSUNNY   84  62  48 E6        29.99F
CORSICANA      SUNNY     85  66  53 E8        30.00S
HEARNE         PTSUNNY   82  68  63 CALM      29.99S
TEMPLE         SUNNY     83  67  58 NE6       29.99F
KILLEEN        SUNNY     83  64  53 CALM      29.98F
KILLEEN-SKYLRK SUNNY     84  65  52 NE3       29.99F
FORT HOOD      SUNNY     83  63  50 N5        29.96F
HAMILTON       MOSUNNY   83  61  46 E5        30.01F
LAMPASAS       SUNNY     81  66  61 CALM      29.99F
$$

TXZ095>097-106>112-122>126-135>138-148>153-164>167-300000-
EAST TEXAS

CITY           SKY/WX    TMP DP  RH WIND       PRES   REMARKS
PARIS          SUNNY     82  54  36 NE6       30.01F
SULPHUR SPRNGS SUNNY     85  51  30 NE6       30.02F
GILMER         CLOUDY    80  67  64 CALM      30.00S
MINEOLA        SUNNY     82  63  51 N6        30.00S
TYLER          CLOUDY    81  68  64 NE6       30.00S
LONGVIEW       CLOUDY    82  71  69 CALM      29.99S
MARSHALL       MOSUNNY   78  67  67 CALM      30.01F
ATHENS         MOSUNNY   81  64  57 NE5       29.98S
PALESTINE      CLOUDY    83  68  60 N3        30.00F
JACKSONVILLE   CLOUDY    80  68  67 CALM      30.03S
HENDERSON      CLOUDY    80  68  67 NE3       30.01R
CENTER         MOCLDY    82  73  72 CALM      30.02S
NACOGDOCHES    PTSUNNY   81  70  69 CALM      29.99S
LUFKIN         CLOUDY    80  68  66 CALM      30.00S
$$

SUPPLEMENTAL OBSERVATIONS (NWS FORT WORTH AREA)

CITY           SKY/WX    TMP DP  RH WIND       PRES   REMARKS
$$

SUPPLEMENTAL OBSERVATIONS (NWS NORMAN AREA)

CITY           SKY/WX    TMP DP  RH WIND       PRES   REMARKS
GOODLETT         N/A     88  39  18 E9        30.01F
ODELL            N/A     87  42  20 SE10      30.02F
CROWELL          N/A     86  43  22 E7        30.02F
KNOX CITY        N/A     88  36  16 NE9       30.01F
SEYMOUR          N/A     87  42  20 N9        30.01F
$$

SUPPLEMENTAL OBSERVATIONS (NWS SAN ANGELO AREA)

CITY           SKY/WX    TMP DP  RH WIND       PRES   REMARKS
WEINERT          N/A     86  42  20 SE5       30.02F
HASKELL          N/A     85  38  18 E8        30.02F
THROCKMORTON     N/A     87  47  24 E2        30.02F
STAMFORD         N/A     86  42  21 NE6       30.02F
CLYDE            N/A     82  50  33 E10       30.05F
$$

SUPPLEMENTAL OBSERVATIONS (NWS SHREVEPORT AREA)

CITY           SKY/WX    TMP DP  RH WIND       PRES   REMARKS
$$

SUPPLEMENTAL OBSERVATIONS ARE A COLLECTION OF AUTOMATED INSTRUMENTS
THAT ARE MAINTAINED BY A VARIETY OF FEDERAL AND STATE AGENCIES.
CERTAIN ELEMENTS...SUCH AS HUMIDITY VALUES AND SUSTAINED WIND
SPEEDS...MAY BE APPROXIMATED.





USA.gov is the U.S. government's official web portal to all federal, state and local government web resources and services.